Agen Poker online, Agen Domino Bet ,bandar judi poker online, Situs Judi Online, Website Poker Online, Agen Domino Terpercaya

Agen Bola, Agen casino, Bandar Bola, Situs Bola

Jackpot

Texas Poker Multi Jackpot System

Kini Telah hadir Jackpot SUPER ROYAL FLUSH

Kini Telah hadir Jackpot 2000 (khusus table VIP keatas).

Ikutilah global jackpot yang tersedia di system kami, dengan system jackpot terbaru dan pertama di indonesia, anda dapat membeli jackpot dengan harga 100 rupiah saja dan menangkan hadiahnya hingga puluhan juta rupiah.

Jackpot bukanlah suatu keharusan untuk dibeli, namun kami memberikan suatu fitur tambahan untuk member tercinta dari www.duapoker.net.

Terdapat tiga pilihan harga jackpot yang bisa anda beli yaitu :100,500,1000 dan 2000(khusus table VIP Keatas) rupiah.

Hadiah dari Multi jackpot system www.duapoker.net

  1. full house x 10 harga jackpot yang anda beli.
      (contoh:anda membeli 1000 maka:1000 X10 = 10.000)
  2. four of kind x 250 harga jackpot yang anda beli
      (contoh:anda membeli 1000 maka:1000 X250 = 250.000)
  3. Straight flush x 1200
      (contoh:anda membeli 1000 maka:1000 X1200 = 1.200.000)
  4. Royal flush x 10000 harga jackpot yang anda beli
      (contoh:anda membeli 1000 maka:1000 X10000 = 10.000.000)
  5. SUPER ROYAL FLUSH x 30000 harga jackpot yang anda beli
      (contoh:anda membeli 1000 maka:1000 X30000 = 30.000.000)

Kondisi kartu

  1. full house adalah kondisi kartu dimana kartu anda dan kartu tengah dengan total 7 kartu bisa mendapatkan nilai 5 kartu dengan kombinasi 1 tris(three of kind) dan 1 pair, contoh 3 kartu 10 dan 2 kartu 5
  2. Four of kind adalah kondisi kartu dimana kartu anda dan kartu tengah dengan total 7 kartu bisa mendapatkan nilai 5 kartu dengan kombinasi 4 kartu yang sama jumlah dan 1 kartu apapun juga contoh anda mendapatkan 4 buah kartu angka 3 dan 1 kartu apapun.
  3. Staright flush adalah kondisi kartu dimana kartu anda dan kartu tengah dengan total 7 kartu bisa mendapatkan nilai 5 kartu dengan kombinasi seri / staright dengan kembang yang sama contoh : urutan kartu dari angka 5, 6, 7, 8 , 9 10 dengan kembang yg sama misalnya as hati
  4. Royal flush adalah kondisi kartu dimana kartu anda dan kartu tengah dengan total 7 kartu bisa mendapatkan nilai 5 kartu dengan kombinasi seri / staright dengan kembang yang sama tetapi kartu tersebut haruslah dimulai dari 10. contoh 10, Queen, Jack, King dan aces dengan kembang yang sama
  5. Super Royal flush adalah kondisi kartu dimana Kedua kartu anda digabung dengan 3 kartu pertama meja haruslah royal flush. contoh kartu anda 10,Queen kembang sama dan 3 kartu pertama meja adalah Jack, King dan aces dengan kembang yang sama

Demikian adalah penjelasan dari Multi Jackpot www.duapoker.net terima kasih dan selamat bermain salam hoki dari kami

Texas Poker Jackpot Winner

TOP SUPER ROYAL FLUSH
No.TanggalNamaPriceWin
125/09 00:17N0AH16Super Royal flush3,000,000
224/09 23:12SAF99Super Royal flush1,500,000
324/09 16:34OPPOF9Super Royal flush30,000,000
424/09 14:33ALL19Super Royal flush6,000,000
524/09 05:39MIFTAHUL42Super Royal flush15,000,000
TOP ROYAL FLUSH
No.TanggalNamaPriceWin
125/09 04:02RESBON88Royal flush2,000,000
225/09 03:54M4RT3L_888Royal flush2,000,000
325/09 03:53ABENK77Royal flush10,000,000
425/09 03:50BOY_008Royal flush5,000,000
525/09 03:44BMW535Royal flush5,000,000
TOP STRAIGHT FLUSH
No.TanggalNamaPriceWin
125/09 04:04FC99Straight Flush240,000
225/09 04:04RAYCUTEStraight Flush2,400,000
325/09 04:03AE0D23D8Straight Flush120,000
425/09 04:01EBF0A747Straight Flush600,000
525/09 04:00CIKIKA25Straight Flush2,400,000
LATEST JACKPOT
No.TanggalNamaPriceWin
125/09 04:04GETAS7Full House5,000
225/09 04:04TELER75Full House5,000
325/09 04:04FC99Straight Flush240,000
425/09 04:04RAYCUTEStraight Flush2,400,000
525/09 04:04D0C75765Full House10,000
625/09 04:04CUBLUK11Full House500
725/09 04:04MBAK099Full House2,000
825/09 04:04DWANGSUTRI7Four Of A Kind250,000
925/09 04:04BLACK_DUNKFull House5,000
1025/09 04:04RUDAL_JPFull House2,000
1125/09 04:04SI4DI_88Full House2,000
1225/09 04:04RODAGILAFull House2,000
1325/09 04:04EE030929Full House1,000
1425/09 04:04ULASMUNENGFull House1,000
1525/09 04:04BEL145Full House2,000
1625/09 04:04MOTOBOLA12Full House2,000
1725/09 04:04DUBSOLUTFull House1,000
1825/09 04:04DAY_DEWA88Full House5,000
1925/09 04:04S_AZHARI99Full House1,000
2025/09 04:04SANGYATIMFull House20,000
2125/09 04:04WICKED_51Full House20,000
2225/09 04:04HOKIBANGE1Full House2,000
2325/09 04:04JONTAR03Full House2,000
2425/09 04:04BULUX7755Full House20,000
2525/09 04:04URIP82Full House20,000
2625/09 04:04E244B146Full House20,000
2725/09 04:04RONI1449Full House5,000
2825/09 04:04SHZM3PF4I1Full House5,000
2925/09 04:04TROYSEXFour Of A Kind250,000
3025/09 04:04FFGGZZ33Four Of A Kind50,000
3125/09 04:04TWINARUANFull House10,000
3225/09 04:04EXGAFATARFull House20,000
3325/09 04:04UM5MX69X1EFull House1,000
3425/09 04:04TAWON127Full House2,000
3525/09 04:04HOK1EUYFull House20,000
3625/09 04:04SOPIANAARUFull House5,000
3725/09 04:04NPHJJKSPEVFull House2,000
3825/09 04:04MIDDLEZEEFull House1,000
3925/09 04:04ANNAQI10Full House10,000
4025/09 04:04A39GSAR29Full House2,000
4125/09 04:04RONNY112Full House1,000
4225/09 04:04PATRICK987Full House2,000
4325/09 04:04ECC2FB6DFull House5,000
4425/09 04:04BAREP02Full House10,000
4525/09 04:04GODHAND5Four Of A Kind12,500
4625/09 04:03THEBOXS138Full House5,000
4725/09 04:03ROSITA05Full House5,000
4825/09 04:03KAKIDA2211Full House5,000
4925/09 04:03QQQ12Full House1,000
5025/09 04:03DRATRAQQFour Of A Kind125,000

Domino Multi Jackpot System

Ikutilah global jackpot yang tersedia di system kami, dengan system jackpot terbaru dan pertama di indonesia, anda dapat membeli jackpot dengan harga 100 rupiah saja dan menangkan hadiahnya hingga puluhan juta rupiah.

Jackpot bukanlah suatu keharusan untuk dibeli, namun kami memberikan suatu fitur tambahan untuk member tercinta dari www.duapoker.net.

Terdapat tiga pilihan harga jackpot yang bisa anda beli yaitu :100,500 dan 1000 rupiah.

Hadiah dari Multi jackpot system www.duapoker.net

  1. Murni Kecil x 50 harga jackpot yang anda beli.
      (contoh:anda membeli 1000 maka:1000 X 50 = 50.000)
  2. Murni Besar x 50 harga jackpot yang anda beli
      (contoh:anda membeli 1000 maka:1000 X 50 = 50.000)
  3. BALAK x 100 harga jackpot yang anda beli
      (contoh:anda membeli 1000 maka:1000 X 100 = 100.000)
  4. ENAM DEWA x 6666 harga jackpot yang anda beli
      (contoh:anda membeli 1000 maka:1000 X 6666 = 6.666.000)

Demikian adalah penjelasan dari Multi Jackpot www.duapoker.net terima kasih dan selamat bermain salam hoki dari kami

Domino Jackpot Winner

TOP ENAM DEWA
No.TanggalNamaPriceWin
125/09 03:00TEMPUYAK90murni enam3,333,000
225/09 02:56MULLAHmurni enam3,333,000
324/09 23:14SUTRIS80murni enam666,600
424/09 22:52LAELADEWImurni enam3,333,000
524/09 22:36DODOR21murni enam666,600
TOP BALAK
No.TanggalNamaPriceWin
125/09 04:01JS9AP8SLNJbalak10,000
225/09 03:59BEW666balak10,000
325/09 03:54OKILAbalak100,000
425/09 03:51R474Qbalak100,000
525/09 03:50QQYUNIARTIbalak10,000
LATEST JACKPOT
No.TanggalNamaPriceWin
125/09 04:04DINDA459murni besar25,000
225/09 04:04KOTATUA99murni besar50,000
325/09 04:03ARB88288murni kecil25,000
425/09 04:03STHmurni kecil50,000
525/09 04:03SUN_N4murni kecil25,000
625/09 04:03MALIN9DUITmurni besar50,000
725/09 04:02PUTAKA99murni besar50,000
825/09 04:02HTMOY68murni besar5,000
925/09 04:02ERIKSANDImurni besar5,000
1025/09 04:01JS9AP8SLNJbalak10,000
1125/09 04:01NOVENlucky9910,000
1225/09 04:00MALIN9DUITmurni besar25,000
1325/09 04:00FAHRIA08murni kecil5,000
1425/09 03:59BEW666balak10,000
1525/09 03:59BOBOBO123murni besar25,000
1625/09 03:59TITIN188lucky9910,000
1725/09 03:59KHAIRULSOFmurni besar25,000
1825/09 03:59DAPASAMmurni besar25,000
1925/09 03:59LUWENmurni kecil50,000
2025/09 03:58KILLA22murni besar50,000
2125/09 03:58RIZKY_JPKUmurni kecil50,000
2225/09 03:55SNI64846murni kecil25,000
2325/09 03:54OKILAbalak100,000
2425/09 03:53NAY1111murni kecil5,000
2525/09 03:52BERDARAmurni besar50,000
2625/09 03:52UDIL99murni kecil25,000
2725/09 03:51R474Qbalak100,000
2825/09 03:51IKYLASUNGmurni besar25,000
2925/09 03:51ARDY791murni kecil50,000
3025/09 03:51PUSPITA06lucky9910,000
3125/09 03:51SASY4murni kecil5,000
3225/09 03:51GARENG39lucky992,500
3325/09 03:50YUDISSmurni besar50,000
3425/09 03:50QQYUNIARTIbalak10,000
3525/09 03:50LB888628murni kecil25,000
3625/09 03:49NAY1111murni kecil5,000
3725/09 03:49C899murni besar50,000
3825/09 03:49EDITH69murni kecil25,000
3925/09 03:49LB888628murni besar25,000
4025/09 03:49G3FSYTF2HWmurni kecil5,000
4125/09 03:48KHAIRULSOFmurni besar5,000
4225/09 03:48BIRKOK6666murni kecil5,000
4325/09 03:48QQYUNIARTIbalak10,000
4425/09 03:47MASISAbalak100,000
4525/09 03:46KEYS12murni besar25,000
4625/09 03:45BSWY9EFOPTmurni kecil5,000
4725/09 03:45JI3NK94balak50,000
4825/09 03:43EDITH69murni besar25,000
4925/09 03:42ARYA133murni kecil25,000
5025/09 03:41GAN2323murni besar25,000

Ceme Multi Jackpot System

Jackpot dilihat dari gabungan kartu pemain dengan kartu bandar. Bandar harus membeli jackpot sebanyak jumlah player yang sedang duduk. Sebagai contoh bila terdapat 3 pemain duduk bermain, dan bandar memutuskan untuk membeli jackpot Rp 1.000, maka pada periode tersebut bandar akan membeli jackpot sebanyak 3xRp1.000 = Rp3.000.

Jackpot bukanlah suatu keharusan untuk dibeli, namun kami memberikan suatu fitur tambahan untuk member tercinta dari www.duapoker.net.

Terdapat tiga pilihan harga jackpot yang bisa anda beli yaitu :100,500 dan 1000 rupiah.

Hadiah dari Multi jackpot system www.duapoker.net

  1. Murni Kecil x 50 harga jackpot yang anda beli.
      (contoh:anda membeli 1000 maka:1000 X 50 = 50.000)
  2. Murni Besar x 50 harga jackpot yang anda beli
      (contoh:anda membeli 1000 maka:1000 X 50 = 50.000)
  3. BALAK x 200 harga jackpot yang anda beli
      (contoh:anda membeli 1000 maka:1000 X 200 = 200.000)
  4. ENAM DEWA x 6666 harga jackpot yang anda beli
      (contoh:anda membeli 1000 maka:1000 X 6666 = 6.666.000)

Demikian adalah penjelasan dari Multi Jackpot www.duapoker.net terima kasih dan selamat bermain salam hoki dari kami

Ceme Jackpot Winner

TOP ENAM DEWA
No.TanggalNamaPriceWin
125/09 03:38ADO002murni enam6,666,000
225/09 03:37TOGIWDmurni enam666,600
325/09 03:28BOJEZ168murni enam6,666,000
425/09 03:28SOBARI888murni enam666,600
525/09 03:01BUJANG132murni enam666,600
TOP BALAK
No.TanggalNamaPriceWin
125/09 04:04KATEL0420balak200,000
225/09 04:03OB378balak200,000
325/09 04:03WIN343balak200,000
425/09 04:03B76D4374balak20,000
525/09 04:01PENTET87balak200,000
LATEST JACKPOT
No.TanggalNamaPriceWin
125/09 04:04IBI76murni besar50,000
225/09 04:04DOY199murni kecil5,000
325/09 04:04NVT888murni besar5,000
425/09 04:04OJOSH01murni besar50,000
525/09 04:04FEBYHPmurni kecil25,000
625/09 04:04QTUM4NJPQmurni kecil25,000
725/09 04:04KATEL0420balak200,000
825/09 04:04NABILA12murni kecil25,000
925/09 04:04MBONK01murni kecil5,000
1025/09 04:04JUNEDTOPmurni kecil50,000
1125/09 04:04KAREEM17murni kecil25,000
1225/09 04:04HEWKOmurni kecil50,000
1325/09 04:04G484Nmurni kecil50,000
1425/09 04:04PETONK888murni kecil50,000
1525/09 04:04G484Nmurni kecil50,000
1625/09 04:03OB378balak200,000
1725/09 04:03B4N99U5murni kecil25,000
1825/09 04:03REJEKIUYEmurni besar5,000
1925/09 04:03JAESUmurni kecil25,000
2025/09 04:03GANDOSS001murni kecil50,000
2125/09 04:03NABILA12murni besar25,000
2225/09 04:03NABILA12murni besar25,000
2325/09 04:03MBONK01murni besar5,000
2425/09 04:03SIBOECEmurni kecil50,000
2525/09 04:03PAKDEE09murni besar50,000
2625/09 04:03ERTEERWEmurni kecil50,000
2725/09 04:03WIN343balak200,000
2825/09 04:03B76D4374balak20,000
2925/09 04:02ARIE080289murni kecil50,000
3025/09 04:02KRW234murni besar50,000
3125/09 04:02FZR81murni besar50,000
3225/09 04:02ICHA1234murni besar50,000
3325/09 04:02BOSKIKIEWmurni besar50,000
3425/09 04:02MANDAI99murni besar25,000
3525/09 04:02TORE16murni besar50,000
3625/09 04:02BHOLOTmurni besar50,000
3725/09 04:02RAFFA939murni kecil5,000
3825/09 04:02APRI09murni kecil25,000
3925/09 04:02POKERO1001murni besar50,000
4025/09 04:02CIZY88murni besar50,000
4125/09 04:02MPEK814murni besar25,000
4225/09 04:02JILAT390murni besar50,000
4325/09 04:01D0C6A2E2murni kecil25,000
4425/09 04:01MAHDAR07murni kecil5,000
4525/09 04:01WASIT56murni kecil25,000
4625/09 04:01TREJOmurni kecil50,000
4725/09 04:01ENDROS125murni kecil50,000
4825/09 04:01S4T7BILY89murni kecil25,000
4925/09 04:01SERPONG35murni kecil50,000
5025/09 04:01A53MBLUE78402murni besar50,000